EXPRESS-AM3 (28707 NORAD) Tracking and Keplerian Element Data

This shows tracking and keplerian element data for the satellite.

Feedback or suggestion? Click here.




ElementValue
Catalog28707
NameEXPRESS-AM3
Epoch Orbit6206
Epoch Day157.035796
Epoch Year2022
RAAN83.9475
Inclination3.5686
Eccentricity0.0001849
Argument of Perigee359.2968
Mean Anonmoly239.4002
Mean Motion0.98997671
Decay Rate8.8E-07
L11 28707U 05023A 22157.03579600 .00000088 00000+0 00000+0 0 9995
L22 28707 3.5686 83.9475 0001849 359.2968 239.4002 0.98997671 62064



Live tracking and technical data element details for EXPRESS-AM3 (NORAD 28707). EXPRESS-AM3 can be tracked NOW for your location showing map with azimuth and elevation plus other details from your city location.







IsCatalogInMostPopularTable: catalog: 28707, numindb: 381
Update: records affected: 1



GetName: 28707 EXPRESS-AM3

Hit Count: updated at: Fri, 16 May 2025 11:11:34 GMT